DELTA 1 DEB, 3126

Orbit data source: Space-Track

DELTA 1 DEB, 3126 is space debris in LEO originally from a launch on Thu, 11 Jan 1968 UTC launched from the Air Force Western Test Range (AFWTR). Debris objects in space refer to the collection of defunct objects orbiting the Earth. Examples of debris include non-operational satellites, rocket bodies, and fragments generated from explosions, collisions, or faulty payload assembly.

Loading next visibility...
Identifier
3126, 1968-002C
Orbit
LEO
Country
Flag of USUS
Related business
Manufacturer
Unknown
Mission
Spacecraft
Bus & Motor
Unknown
Mass
Unknown
Launch date (UTC)
1968-01-11 (58 years ago)
Launch vehicle
Unknown
Launch site
Air Force Western Test Range (AFWTR)
Object type
Payload
Rocket body
Debris
Shape & HBR
Unknown
Radar Cross Section
Small (<0.1 m²)

Expand to show TLE details & history
Last TLE update: 2 days ago

TLE from 2 days ago
0 DELTA 1 DEB
1 03126U 68002C   25256.71910019 -.00000049  00000-0  99441-4 0  9991
2 03126 106.0773  84.7627 0322409 239.8298 183.1531 12.82450227698843
Epoch: 2025-09-13T17:15Z
TLE epoch observation values (Epoch: 2025-09-13T17:15:30.256Z)
Latitude
58.8039°
Longitude
164.66544°
Altitude
1,589.444 km
Speed
6.965 km/s
True Right ascension
03h 45m 57s
True Declination
58° 40' 02"
Sunlit
Object was in daylight at epoch
Visualization orbit readout
Latitude
Unknown
Longitude
Unknown
Altitude
Unknown
Speed
Unknown
Apparent Right ascension
Unknown
Apparent Declination
Unknown
Sunlit
N/A
Visualization observer readout
Local Sidereal Time
18:20:37
Azimuth
Unknown
Elevation
Unknown
Doppler factor
Unknown
Orbital elements
Apogee altitude
1,577.936 km
Perigee altitude
1,080.938 km
Semi-major axis
7,707.574 km
Eccentricity
0.03224
Inclination
106.0773°
RAAN
84.7627°
Arg. of periapsis
239.8298°
True anomaly
182.95776°
Mean anomaly
183.1531°
Eccentric anomaly
183.05466°
Mean motion
3.2075 °/min
Orbital period
112.24 mins
BSTAR
0.000099441
Loading maneuver chart data...
Computing Atmospheric mass density...
Loading historical data...
Loading historical data...
Loading historical data...
Loading historical data...
Loading historical data...
Loading historical data...
Loading historical data...

Documentation

Showing up to 5 results
|